Location: Sternwarte ZA, Rosenfeld-Brittheim
(48.2889°N, 8.6789°E)
Time: 19:57:20

ISS - Pass Details

Date: 14 March 2018
Orbit: 403 x 406 km, 51.6° (Epoch: 23 March)

Event Time Altitude Azimuth Distance (km) Brightness Sun altitude
Exits shadow 03:46:52 17° 67° (ENE) 1,109 -0.9 -28.6°
Drops below altitude 10° 03:47:49 10° 73° (ENE) 1,468 -0.1 -28.4°
Sets 03:49:58 0° 80° (E) 2,327 1.1 -28.1°
